When you browse on this site, cookies collect data to enhance your experience and personalize the content and advertising you see.
Visit our Privacy Policy to learn more. By continuing to use the site, you agree to this use of cookies and data.
  • In Portugal
  • List of Countries
  • For 7 days
  • Water Temperature
  • Satellite Maps
  • Weather Map
  • Weather Widgets
  • user-avatar
    Login

    Hourly Weather Czyzowice

    Today, 22 March, Friday

    Time Temperature Precipitation Wind Pressure Humidity
    00:00 +7°C° 0 mm 2 mps 754 mmHg 87%
    01:00 +5°C° 0 mm 3 mps 754 mmHg 88%
    02:00 +7°C° 0 mm 3 mps 753 mmHg 88%
    03:00 +7°C° 0 mm 3 mps 753 mmHg 87%
    04:00 +7°C° 0 mm 3 mps 753 mmHg 86%
    05:00 +7°C° 0 mm 3 mps 753 mmHg 85%
    06:00 +8°C° 0 mm 3 mps 753 mmHg 85%
    07:00 +8°C° 0 mm 3 mps 753 mmHg 84%
    08:00 +9°C° 0 mm 3 mps 753 mmHg 83%
    09:00 +9°C° 0 mm 3 mps 753 mmHg 82%
    10:00 +10°C° 0 mm 3 mps 754 mmHg 81%
    11:00 +10°C° 0 mm 3 mps 754 mmHg 78%
    12:00 +11°C° 0 mm 3 mps 754 mmHg 75%
    13:00 +12°C° 0 mm 3 mps 754 mmHg 72%
    14:00 +12°C° 0 mm 3 mps 753 mmHg 71%
    15:00 +13°C° 0 mm 2 mps 753 mmHg 69%
    16:00 +13°C° 0 mm 2 mps 753 mmHg 68%
    17:00 +13°C° 0 mm 2 mps 753 mmHg 72%
    18:00 +12°C° 0 mm 2 mps 753 mmHg 75%
    19:00 +10°C° 0 mm 2 mps 753 mmHg 79%
    20:00 +9°C° 0 mm 2 mps 753 mmHg 81%
    21:00 +8°C° 0 mm 2 mps 753 mmHg 83%
    22:00 +8°C° 0 mm 2 mps 753 mmHg 85%
    23:00 +7°C° 0 mm 2 mps 753 mmHg 87%

    Tomorrow, 23 March, Saturday

    Time Temperature Precipitation Wind Pressure Humidity
    00:00 +7°C° 0 mm 1 mps 753 mmHg 88%
    01:00 +7°C° 0 mm 1 mps 753 mmHg 89%
    02:00 +6°C° 0 mm 1 mps 752 mmHg 90%
    03:00 +6°C° 0 mm 1 mps 752 mmHg 90%
    04:00 +5°C° 0 mm 1 mps 752 mmHg 91%
    05:00 +6°C° 0 mm 1 mps 752 mmHg 89%
    06:00 +6°C° 0 mm 1 mps 752 mmHg 88%
    07:00 +6°C° 0 mm 1 mps 752 mmHg 86%
    08:00 +7°C° 0 mm 2 mps 752 mmHg 78%
    09:00 +9°C° 0 mm 2 mps 751 mmHg 69%
    10:00 +12°C° 0 mm 2 mps 751 mmHg 60%
    11:00 +13°C° 0 mm 2 mps 751 mmHg 54%
    12:00 +14°C° 0 mm 2 mps 750 mmHg 48%
    13:00 +15°C° 0 mm 2 mps 750 mmHg 42%
    14:00 +15°C° 0 mm 2 mps 750 mmHg 41%
    15:00 +15°C° 0 mm 1 mps 749 mmHg 40%
    16:00 +16°C° 0 mm 1 mps 749 mmHg 39%
    17:00 +14°C° 0 mm 1 mps 749 mmHg 43%
    18:00 +13°C° 0 mm 1 mps 749 mmHg 47%
    19:00 +11°C° 0 mm 1 mps 748 mmHg 50%
    20:00 +11°C° 0 mm 1 mps 748 mmHg 52%
    21:00 +10°C° 0 mm 1 mps 748 mmHg 54%
    22:00 +9°C° 0 mm 2 mps 748 mmHg 56%
    23:00 +9°C° 0 mm 2 mps 748 mmHg 62%

    Day after tomorrow, 24 March, Sunday

    Time Temperature Precipitation Wind Pressure Humidity
    00:00 +9°C° 0 mm 2 mps 748 mmHg 68%
    01:00 +9°C° 0 mm 2 mps 748 mmHg 74%
    02:00 +9°C° 0 mm 2 mps 748 mmHg 77%
    03:00 +9°C° 0 mm 2 mps 748 mmHg 80%
    04:00 +9°C° 0 mm 2 mps 748 mmHg 83%
    05:00 +9°C° 0 mm 3 mps 748 mmHg 85%
    06:00 +8°C° 0 mm 3 mps 748 mmHg 87%
    07:00 +8°C° 0 mm 3 mps 748 mmHg 88%
    08:00 +9°C° 0 mm 3 mps 748 mmHg 79%
    09:00 +10°C° 0 mm 3 mps 749 mmHg 69%
    10:00 +10°C° 0 mm 3 mps 749 mmHg 60%
    11:00 +11°C° 0 mm 3 mps 748 mmHg 55%
    12:00 +12°C° 0 mm 3 mps 748 mmHg 50%
    13:00 +13°C° 0 mm 3 mps 748 mmHg 45%
    14:00 +12°C° 0 mm 4 mps 747 mmHg 44%
    15:00 +12°C° 0 mm 4 mps 747 mmHg 43%
    16:00 +11°C° 0 mm 4 mps 746 mmHg 42%
    17:00 +10°C° 0 mm 3 mps 746 mmHg 43%
    18:00 +10°C° 0 mm 3 mps 747 mmHg 44%
    19:00 +9°C° 0 mm 2 mps 747 mmHg 45%
    20:00 +8°C° 0 mm 2 mps 747 mmHg 49%
    21:00 +6°C° 0 mm 2 mps 747 mmHg 53%
    22:00 +5°C° 0 mm 2 mps 747 mmHg 57%
    23:00 +5°C° 0 mm 2 mps 747 mmHg 59%

    25 March, Monday

    Time Temperature Precipitation Wind Pressure Humidity
    00:00 +4°C° 0 mm 2 mps 746 mmHg 61%
    01:00 +4°C° 0 mm 2 mps 746 mmHg 64%
    02:00 +4°C° 0 mm 2 mps 746 mmHg 65%
    03:00 +3°C° 0 mm 2 mps 746 mmHg 66%
    04:00 +3°C° 0 mm 2 mps 745 mmHg 68%
    05:00 +3°C° 0 mm 3 mps 745 mmHg 66%
    06:00 +3°C° 0 mm 3 mps 745 mmHg 64%
    07:00 +4°C° 0 mm 4 mps 745 mmHg 62%
    08:00 +5°C° 0 mm 4 mps 745 mmHg 58%
    09:00 +6°C° 0 mm 5 mps 744 mmHg 54%
    10:00 +7°C° 0 mm 6 mps 744 mmHg 50%
    11:00 +6°C° 0 mm 7 mps 743 mmHg 46%
    12:00 +8°C° 0 mm 7 mps 742 mmHg 42%
    13:00 +9°C° 0 mm 7 mps 742 mmHg 39%
    14:00 +7°C° 0 mm 8 mps 741 mmHg 41%
    15:00 +7°C° 0 mm 8 mps 741 mmHg 44%
    16:00 +7°C° 0 mm 8 mps 740 mmHg 46%
    17:00 +5°C° 0.9 mm 8 mps 740 mmHg 52%
    18:00 +4°C° 0.9 mm 7 mps 740 mmHg 58%
    19:00 +3°C° 0.9 mm 7 mps 740 mmHg 64%
    20:00 +2°C° 0 mm 6 mps 741 mmHg 66%
    21:00 +2°C° 0 mm 6 mps 741 mmHg 68%
    22:00 +1°C° 0 mm 5 mps 741 mmHg 71%
    23:00 +1°C° 0.2 mm 6 mps 742 mmHg 74%

    26 March, Tuesday

    Time Temperature Precipitation Wind Pressure Humidity
    00:00 +1°C° 0.2 mm 6 mps 742 mmHg 77%
    01:00 -1°C° 0.2 mm 6 mps 743 mmHg 80%
    02:00 -1°C° 0.4 mm 6 mps 743 mmHg 81%
    03:00 -1°C° 0.4 mm 7 mps 744 mmHg 82%
    04:00 -1°C° 0.4 mm 7 mps 745 mmHg 82%
    05:00 -1°C° 0 mm 7 mps 746 mmHg 83%
    06:00 -1°C° 0 mm 6 mps 747 mmHg 83%
    07:00 0°C° 0 mm 5 mps 748 mmHg 84%
    08:00 -1°C° 0.1 mm 6 mps 748 mmHg 82%
    09:00 +1°C° 0.1 mm 6 mps 749 mmHg 80%
    10:00 +1°C° 0.1 mm 6 mps 750 mmHg 78%
    11:00 +2°C° 0.1 mm 6 mps 750 mmHg 76%
    12:00 +2°C° 0.1 mm 6 mps 751 mmHg 74%
    13:00 +2°C° 0.1 mm 6 mps 751 mmHg 72%
    14:00 +3°C° 0 mm 5 mps 751 mmHg 68%
    15:00 +3°C° 0 mm 5 mps 751 mmHg 64%
    16:00 +4°C° 0 mm 4 mps 751 mmHg 60%
    17:00 +3°C° 0 mm 4 mps 752 mmHg 64%
    18:00 +2°C° 0 mm 3 mps 752 mmHg 67%
    19:00 +2°C° 0 mm 2 mps 752 mmHg 70%
    20:00 +2°C° 0 mm 2 mps 753 mmHg 72%
    21:00 +2°C° 0 mm 2 mps 753 mmHg 75%
    22:00 +1°C° 0 mm 2 mps 753 mmHg 77%
    23:00 +1°C° 0 mm 2 mps 753 mmHg 78%

    27 March, Wednesday

    Time Temperature Precipitation Wind Pressure Humidity
    00:00 0°C° 0 mm 3 mps 753 mmHg 79%
    01:00 -1°C° 0 mm 3 mps 753 mmHg 80%
    02:00 -1°C° 0 mm 3 mps 752 mmHg 79%
    03:00 -1°C° 0 mm 3 mps 752 mmHg 79%
    04:00 -1°C° 0 mm 3 mps 752 mmHg 78%
    05:00 -1°C° 0 mm 4 mps 752 mmHg 74%
    06:00 0°C° 0 mm 4 mps 752 mmHg 69%
    07:00 0°C° 0 mm 4 mps 752 mmHg 65%
    08:00 +2°C° 0 mm 5 mps 751 mmHg 60%
    09:00 +3°C° 0 mm 5 mps 751 mmHg 55%
    10:00 +5°C° 0 mm 5 mps 751 mmHg 49%
    11:00 +5°C° 0 mm 6 mps 751 mmHg 50%
    12:00 +7°C° 0 mm 6 mps 751 mmHg 50%
    13:00 +7°C° 0 mm 6 mps 751 mmHg 50%
    14:00 +7°C° 0 mm 6 mps 751 mmHg 56%
    15:00 +7°C° 0 mm 5 mps 750 mmHg 61%
    16:00 +7°C° 0 mm 5 mps 750 mmHg 66%
    17:00 +6°C° 0 mm 4 mps 751 mmHg 71%
    18:00 +5°C° 0 mm 4 mps 751 mmHg 76%
    19:00 +5°C° 0 mm 3 mps 751 mmHg 81%
    20:00 +4°C° 0.1 mm 3 mps 751 mmHg 83%
    21:00 +4°C° 0.1 mm 3 mps 751 mmHg 85%
    22:00 +4°C° 0.1 mm 3 mps 752 mmHg 87%
    23:00 +4°C° 0 mm 3 mps 752 mmHg 88%
    Show more